Andalusia, AL

3:49 AM CDT on May 30, 2017 (GMT -0500)
Andalusia

Weather History for K79J - February, 2014

Change the Weather History Date:

Tuesday, February 11, 2014

  Actual Average (KCEW) Record (KCEW)
Temperature  
Mean Temperature 49 °F -  
Max Temperature 52 °F 65 °F 78 °F (1999)
Min Temperature 46 °F 35 °F 23 °F (1979)
Degree Days  
Heating Degree Days 16    
Moisture  
Dew Point 45 °F    
Average Humidity 85    
Maximum Humidity 88    
Minimum Humidity 80    
Precipitation  
Precipitation 0.25 in - - ()
Sea Level Pressure  
Sea Level Pressure 30.09 in    
Wind  
Wind Speed 6 mph (ENE)    
Max Wind Speed 14 mph    
Max Gust Speed 18 mph    
Visibility 6 miles    
Events Rain    
Averages and records for this station are not official NWS values.
T = Trace of Precipitation, MM = Missing Value Source: NWS Daily Summary

Daily Weather History Graph

Daily Weather History Graph

Search for Another Location

Airport or City:

Trip Planner

Search our weather history database for the weather conditions in past years. The results will help you decide how hot, cold, wet, or windy it might be!

Date:

Astronomy

Feb. 11, 2014 Rise Set
Actual Time 6:30 AM CST 5:29 PM CST
Civil Twilight 6:05 AM CST 5:54 PM CST
Nautical Twilight 5:36 AM CST 6:23 PM CST
Astronomical Twilight 5:08 AM CST 6:51 PM CST
Moon 2:54 PM CST (2/11) 4:01 AM CST (2/11)
Length of Visible Light 11h 48m
Length of Day
10h 59m
Waxing Gibbous, 91% of the Moon is Illuminated
Feb 11
Waxing Gibbous
Feb 14
Full
Feb 22
Last Quarter
Mar 1
New
Mar 8
First Quarter

Hourly Weather History & Observations

Time (CST) Temp. Windchill Dew Point Humidity Pressure Visibility Wind Dir Wind Speed Gust Speed Precip Events Conditions
12:05 AM 51.8 °F - 48.2 °F 88% 30.08 in 3.0 mi NNE 3.5 mph - 0.00 in Rain Light Rain
12:54 AM 51.8 °F - 46.4 °F 82% 30.08 in 2.5 mi NE 3.5 mph - 0.01 in Rain Light Rain
12:56 AM 52.0 °F - 46.9 °F 83% 30.08 in 3.0 mi NE 3.5 mph - 0.01 in Rain Light Rain
1:44 AM 51.8 °F - 46.4 °F 82% 30.06 in 6.0 mi East 4.6 mph - 0.00 in Rain Light Rain
1:56 AM 52.0 °F - 46.9 °F 83% 30.06 in 7.0 mi ENE 3.5 mph - 0.00 in Rain Light Rain
2:13 AM 51.8 °F - 46.4 °F 82% 30.07 in 8.0 mi NNE 4.6 mph - 0.00 in   Overcast
2:56 AM 51.1 °F - 46.9 °F 86% 30.06 in 10.0 mi East 4.6 mph - 0.00 in   Overcast
3:56 AM 51.1 °F - 46.9 °F 86% 30.06 in 6.0 mi NE 4.6 mph - N/A   Overcast
4:38 AM 51.8 °F - 46.4 °F 82% 30.05 in 4.0 mi NE 4.6 mph - 0.00 in   Haze
4:56 AM 50.0 °F - 46.0 °F 86% 30.07 in 4.0 mi NE 5.8 mph - 0.00 in   Overcast
5:56 AM 48.9 °F - 44.1 °F 83% 30.09 in 4.0 mi NNE 6.9 mph - N/A   Haze
6:56 AM 48.0 °F - 44.1 °F 86% 30.11 in 4.0 mi ENE 5.8 mph - 0.01 in Rain Light Rain
7:04 AM 48.2 °F - 44.6 °F 87% 30.12 in 4.0 mi NE 5.8 mph - 0.01 in Rain Light Rain
7:56 AM 48.0 °F - 44.1 °F 86% 30.14 in 5.0 mi NE 4.6 mph - 0.04 in Rain Light Rain
8:56 AM 48.0 °F - 43.0 °F 83% 30.15 in 10.0 mi ENE 3.5 mph - 0.00 in   Overcast
9:56 AM 48.0 °F - 43.0 °F 83% 30.15 in 10.0 mi ENE 3.5 mph - N/A   Overcast
10:56 AM 48.9 °F - 43.0 °F 80% 30.14 in 10.0 mi ENE 6.9 mph - 0.00 in Rain Light Rain
11:56 AM 50.0 °F - 45.0 °F 83% 30.12 in 10.0 mi East 9.2 mph - 0.00 in   Overcast
12:56 PM 51.1 °F - 46.0 °F 83% 30.09 in 10.0 mi East 8.1 mph - N/A   Overcast
1:56 PM 51.1 °F - 46.0 °F 83% 30.09 in 8.0 mi ENE 4.6 mph - N/A   Overcast
2:56 PM 51.1 °F - 46.0 °F 83% 30.08 in 6.0 mi ENE 5.8 mph - N/A   Haze
3:56 PM 50.0 °F - 46.0 °F 86% 30.08 in 4.0 mi ENE 6.9 mph - N/A   Overcast
4:03 PM 50.0 °F - 46.4 °F 87% 30.08 in 2.5 mi East 8.1 mph - 0.00 in Rain Light Rain
4:47 PM 50.0 °F - 46.4 °F 87% 30.07 in 1.8 mi East 8.1 mph - 0.01 in Rain Light Rain
4:54 PM 50.0 °F - 46.4 °F 87% 30.07 in 2.0 mi ESE 9.2 mph - 0.01 in Rain Light Rain
4:56 PM 50.0 °F - 46.0 °F 86% 30.07 in 2.5 mi East 9.2 mph - 0.01 in Rain Light Rain
5:06 PM 50.0 °F - 46.4 °F 87% 30.09 in 4.0 mi East 5.8 mph - 0.00 in Rain Light Rain
5:43 PM 50.0 °F - 46.4 °F 87% 30.10 in 7.0 mi NE 8.1 mph - 0.00 in Rain Light Rain
5:56 PM 50.0 °F - 45.0 °F 83% 30.10 in 3.0 mi ENE 6.9 mph 16.1 mph 0.01 in Rain Light Rain
6:56 PM 48.9 °F - 44.1 °F 83% 30.10 in 7.0 mi East 5.8 mph - 0.01 in   Overcast
7:05 PM 48.2 °F - 44.6 °F 87% 30.10 in 6.0 mi ENE 5.8 mph - N/A   Overcast
7:56 PM 46.9 °F - 43.0 °F 86% 30.12 in 6.0 mi East 6.9 mph - 0.00 in   Overcast
8:51 PM 46.4 °F 42.4 °F 42.8 °F 87% 30.10 in 5.0 mi East 8.1 mph 18.4 mph 0.06 in Rain Rain
8:56 PM 46.9 °F - 43.0 °F 86% 30.10 in 5.0 mi East 9.2 mph - 0.07 in Rain Light Rain
9:53 PM 46.4 °F 40.4 °F 42.8 °F 87% 30.07 in 9.0 mi ESE 13.8 mph - 0.00 in   Overcast
9:56 PM 46.9 °F - 42.1 °F 83% 30.07 in 10.0 mi SE 12.7 mph - 0.00 in   Overcast
10:56 PM 46.9 °F - 42.1 °F 83% 30.05 in 10.0 mi ESE 11.5 mph - 0.01 in Rain Light Rain
11:56 PM 46.0 °F 42.5 °F 42.1 °F 86% 30.04 in 5.0 mi East 6.9 mph - 0.08 in Rain Light Rain